owner,sensor,date,latitude,longitude,vertical_datum,wind_speed,wind_to_direction,wind_speed_of_gust,qcFlag 
LOOP,urn:ioos:station:wmo:lopl1:1,2013-04-01T00:14:00Z,28.8850,-90.0250,10.0,3.5,291.0,5.3,'11111222,11111222,11111222' 
LOOP,urn:ioos:station:wmo:lopl1:1,2013-04-01T00:29:00Z,28.8850,-90.0250,10.0,3.9,309.0,5.6,'11111222,11111222,11111222' 
LOOP,urn:ioos:station:wmo:lopl1:1,2013-04-01T00:44:00Z,28.8850,-90.0250,10.0,9.1,3.0,12.3,'11111222,11111222,11111222' 
LOOP,urn:ioos:station:wmo:lopl1:1,2013-04-01T00:59:00Z,28.8850,-90.0250,10.0,7.1,1.0,10.2,'11111222,11111222,11111222' 
LOOP,urn:ioos:station:wmo:lopl1:1,2013-04-01T01:14:00Z,28.8850,-90.0250,10.0,6.7,8.0,8.5,'11111222,11111222,11111222' 
LOOP,urn:ioos:station:wmo:lopl1:1,2013-04-01T01:34:00Z,28.8850,-90.0250,10.0,5.0,23.0,5.8,'11111222,11111222,11111222' 
LOOP,urn:ioos:station:wmo:lopl1:1,2013-04-01T01:49:00Z,28.8850,-90.0250,10.0,1.8,67.0,2.6,'11111222,11111222,11111222' 
LOOP,urn:ioos:station:wmo:lopl1:1,2013-04-01T02:04:00Z,28.8850,-90.0250,10.0,3.6,151.0,4.2,'11111222,11111222,11111222' 
LOOP,urn:ioos:station:wmo:lopl1:1,2013-04-01T02:19:00Z,28.8850,-90.0250,10.0,4.9,163.0,5.5,'11111222,11111222,11111222' 
LOOP,urn:ioos:station:wmo:lopl1:1,2013-04-01T02:34:00Z,28.8850,-90.0250,10.0,3.8,211.0,6.1,'11111222,11111222,11111222' 
LOOP,urn:ioos:station:wmo:lopl1:1,2013-04-01T02:49:00Z,28.8850,-90.0250,10.0,4.0,199.0,5.4,'11111222,11111222,11111222' 
LOOP,urn:ioos:station:wmo:lopl1:1,2013-04-01T03:04:00Z,28.8850,-90.0250,10.0,3.9,195.0,5.0,'11111222,11111222,11111222' 
LOOP,urn:ioos:station:wmo:lopl1:1,2013-04-01T03:19:00Z,28.8850,-90.0250,10.0,2.7,210.0,3.5,'11111222,11111222,11111222' 
LOOP,urn:ioos:station:wmo:lopl1:1,2013-04-01T03:34:00Z,28.8850,-90.0250,10.0,3.3,204.0,4.7,'11111222,11111222,11111222' 
LOOP,urn:ioos:station:wmo:lopl1:1,2013-04-01T03:49:00Z,28.8850,-90.0250,10.0,3.8,212.0,4.6,'11111222,11111222,11111222' 
LOOP,urn:ioos:station:wmo:lopl1:1,2013-04-01T04:04:00Z,28.8850,-90.0250,10.0,4.3,214.0,5.5,'11111222,11111222,11111222' 
LOOP,urn:ioos:station:wmo:lopl1:1,2013-04-01T04:19:00Z,28.8850,-90.0250,10.0,3.8,201.0,4.9,'11111222,11111222,11111222' 
LOOP,urn:ioos:station:wmo:lopl1:1,2013-04-01T04:34:00Z,28.8850,-90.0250,10.0,3.8,195.0,5.3,'11111222,11111222,11111222' 
LOOP,urn:ioos:station:wmo:lopl1:1,2013-04-01T04:49:00Z,28.8850,-90.0250,10.0,3.5,204.0,5.0,'11111222,11111222,11111222' 
LOOP,urn:ioos:station:wmo:lopl1:1,2013-04-01T05:04:00Z,28.8850,-90.0250,10.0,3.6,198.0,4.7,'11111222,11111222,11111222' 
LOOP,urn:ioos:station:wmo:lopl1:1,2013-04-01T05:19:00Z,28.8850,-90.0250,10.0,4.2,174.0,5.5,'11111222,11111222,11111222' 
LOOP,urn:ioos:station:wmo:lopl1:1,2013-04-01T05:34:00Z,28.8850,-90.0250,10.0,5.4,159.0,5.8,'11111222,11111222,11111222' 
LOOP,urn:ioos:station:wmo:lopl1:1,2013-04-01T05:49:00Z,28.8850,-90.0250,10.0,2.8,139.0,3.7,'11111222,11111222,11111222' 
LOOP,urn:ioos:station:wmo:lopl1:1,2013-04-01T06:04:00Z,28.8850,-90.0250,10.0,1.3,154.0,1.9,'11111222,11111222,11111222' 
LOOP,urn:ioos:station:wmo:lopl1:1,2013-04-01T06:19:00Z,28.8850,-90.0250,10.0,1.9,36.0,2.6,'11111222,11111222,11111222' 
LOOP,urn:ioos:station:wmo:lopl1:1,2013-04-01T06:34:00Z,28.8850,-90.0250,10.0,4.6,92.0,5.1,'11111222,11111222,11111222' 
LOOP,urn:ioos:station:wmo:lopl1:1,2013-04-01T06:49:00Z,28.8850,-90.0250,10.0,3.2,149.0,3.5,'11111222,11111222,11111222' 
LOOP,urn:ioos:station:wmo:lopl1:1,2013-04-01T07:04:00Z,28.8850,-90.0250,10.0,2.4,142.0,2.8,'11111222,11111222,11111222' 
LOOP,urn:ioos:station:wmo:lopl1:1,2013-04-01T07:19:00Z,28.8850,-90.0250,10.0,3.0,143.0,3.3,'11111222,11111222,11111222' 
LOOP,urn:ioos:station:wmo:lopl1:1,2013-04-01T07:34:00Z,28.8850,-90.0250,10.0,2.8,145.0,3.1,'11111222,11111222,11111222' 
LOOP,urn:ioos:station:wmo:lopl1:1,2013-04-01T07:49:00Z,28.8850,-90.0250,10.0,1.9,159.0,2.1,'11111222,11111222,11111222' 
LOOP,urn:ioos:station:wmo:lopl1:1,2013-04-01T08:09:00Z,28.8850,-90.0250,10.0,2.0,167.0,2.2,'11111222,11111222,11111222' 
LOOP,urn:ioos:station:wmo:lopl1:1,2013-04-01T08:24:00Z,28.8850,-90.0250,10.0,1.7,166.0,2.5,'11111222,11111222,11111222' 
LOOP,urn:ioos:station:wmo:lopl1:1,2013-04-01T08:39:00Z,28.8850,-90.0250,10.0,1.9,164.0,2.0,'11111222,11111222,11111222' 
LOOP,urn:ioos:station:wmo:lopl1:1,2013-04-01T08:54:00Z,28.8850,-90.0250,10.0,1.8,174.0,2.2,'11111222,11111222,11111222' 
LOOP,urn:ioos:station:wmo:lopl1:1,2013-04-01T09:09:00Z,28.8850,-90.0250,10.0,1.8,168.0,2.3,'11111222,11111222,11111222' 
LOOP,urn:ioos:station:wmo:lopl1:1,2013-04-01T09:24:00Z,28.8850,-90.0250,10.0,1.8,211.0,2.6,'11111222,11111222,11111222' 
LOOP,urn:ioos:station:wmo:lopl1:1,2013-04-01T09:39:00Z,28.8850,-90.0250,10.0,2.8,222.0,3.1,'11111222,11111222,11111222' 
LOOP,urn:ioos:station:wmo:lopl1:1,2013-04-01T09:54:00Z,28.8850,-90.0250,10.0,2.7,221.0,3.2,'11111222,11111222,11111222' 
LOOP,urn:ioos:station:wmo:lopl1:1,2013-04-01T10:09:00Z,28.8850,-90.0250,10.0,2.7,228.0,3.1,'11111222,11111222,11111222' 
LOOP,urn:ioos:station:wmo:lopl1:1,2013-04-01T10:24:00Z,28.8850,-90.0250,10.0,3.9,226.0,4.4,'11111222,11111222,11111222' 
LOOP,urn:ioos:station:wmo:lopl1:1,2013-04-01T10:39:00Z,28.8850,-90.0250,10.0,3.6,231.0,4.3,'11111222,11111222,11111222' 
LOOP,urn:ioos:station:wmo:lopl1:1,2013-04-01T10:54:00Z,28.8850,-90.0250,10.0,2.2,277.0,3.1,'11111222,11111222,11111222' 
LOOP,urn:ioos:station:wmo:lopl1:1,2013-04-01T11:09:00Z,28.8850,-90.0250,10.0,3.0,278.0,4.3,'11111222,11111222,11111222' 
LOOP,urn:ioos:station:wmo:lopl1:1,2013-04-01T11:24:00Z,28.8850,-90.0250,10.0,2.7,277.0,3.7,'11111222,11111222,11111222' 
LOOP,urn:ioos:station:wmo:lopl1:1,2013-04-01T11:39:00Z,28.8850,-90.0250,10.0,3.5,284.0,4.8,'11111222,11111222,11111222' 
LOOP,urn:ioos:station:wmo:lopl1:1,2013-04-01T11:54:00Z,28.8850,-90.0250,10.0,3.9,287.0,4.7,'11111222,11111222,11111222' 
LOOP,urn:ioos:station:wmo:lopl1:1,2013-04-01T12:09:00Z,28.8850,-90.0250,10.0,3.2,292.0,4.3,'11111222,11111222,11111222' 
LOOP,urn:ioos:station:wmo:lopl1:1,2013-04-01T12:24:00Z,28.8850,-90.0250,10.0,3.7,287.0,4.8,'11111222,11111222,11111222' 
LOOP,urn:ioos:station:wmo:lopl1:1,2013-04-01T12:39:00Z,28.8850,-90.0250,10.0,3.9,297.0,4.9,'11111222,11111222,11111222' 
LOOP,urn:ioos:station:wmo:lopl1:1,2013-04-01T12:54:00Z,28.8850,-90.0250,10.0,3.1,304.0,3.8,'11111222,11111222,11111222' 
LOOP,urn:ioos:station:wmo:lopl1:1,2013-04-01T13:09:00Z,28.8850,-90.0250,10.0,2.7,294.0,3.5,'11111222,11111222,11111222' 
LOOP,urn:ioos:station:wmo:lopl1:1,2013-04-01T13:24:00Z,28.8850,-90.0250,10.0,2.6,292.0,3.4,'11111222,11111222,11111222' 
LOOP,urn:ioos:station:wmo:lopl1:1,2013-04-01T13:39:00Z,28.8850,-90.0250,10.0,3.2,287.0,4.1,'11111222,11111222,11111222' 
LOOP,urn:ioos:station:wmo:lopl1:1,2013-04-01T13:54:00Z,28.8850,-90.0250,10.0,3.2,294.0,4.6,'11111222,11111222,11111222' 
LOOP,urn:ioos:station:wmo:lopl1:1,2013-04-01T14:09:00Z,28.8850,-90.0250,10.0,3.6,293.0,4.7,'11111222,11111222,11111222' 
LOOP,urn:ioos:station:wmo:lopl1:1,2013-04-01T14:24:00Z,28.8850,-90.0250,10.0,3.5,283.0,4.5,'11111222,11111222,11111222' 
LOOP,urn:ioos:station:wmo:lopl1:1,2013-04-01T14:39:00Z,28.8850,-90.0250,10.0,3.0,296.0,4.1,'11111222,11111222,11111222' 
LOOP,urn:ioos:station:wmo:lopl1:1,2013-04-01T14:59:00Z,28.8850,-90.0250,10.0,2.4,308.0,3.9,'11111222,11111222,11111222' 
LOOP,urn:ioos:station:wmo:lopl1:1,2013-04-01T15:14:00Z,28.8850,-90.0250,10.0,2.5,308.0,3.7,'11111222,11111222,11111222' 
LOOP,urn:ioos:station:wmo:lopl1:1,2013-04-01T15:29:00Z,28.8850,-90.0250,10.0,2.6,306.0,3.4,'11111222,11111222,11111222' 
LOOP,urn:ioos:station:wmo:lopl1:1,2013-04-01T15:44:00Z,28.8850,-90.0250,10.0,2.3,314.0,3.3,'11111222,11111222,11111222' 
LOOP,urn:ioos:station:wmo:lopl1:1,2013-04-01T15:59:00Z,28.8850,-90.0250,10.0,3.2,325.0,5.0,'11111222,11111222,11111222' 
LOOP,urn:ioos:station:wmo:lopl1:1,2013-04-01T16:14:00Z,28.8850,-90.0250,10.0,2.5,1.0,3.5,'11111222,11111222,11111222' 
LOOP,urn:ioos:station:wmo:lopl1:1,2013-04-01T16:29:00Z,28.8850,-90.0250,10.0,2.0,352.0,3.0,'11111222,11111222,11111222' 
LOOP,urn:ioos:station:wmo:lopl1:1,2013-04-01T16:44:00Z,28.8850,-90.0250,10.0,2.4,358.0,3.4,'11111222,11111222,11111222' 
LOOP,urn:ioos:station:wmo:lopl1:1,2013-04-01T16:59:00Z,28.8850,-90.0250,10.0,2.5,354.0,4.3,'11111222,11111222,11111222' 
LOOP,urn:ioos:station:wmo:lopl1:1,2013-04-01T17:14:00Z,28.8850,-90.0250,10.0,2.3,352.0,3.1,'11111222,11111222,11111222' 
LOOP,urn:ioos:station:wmo:lopl1:1,2013-04-01T17:29:00Z,28.8850,-90.0250,10.0,1.9,354.0,2.8,'11111222,11111222,11111222' 
LOOP,urn:ioos:station:wmo:lopl1:1,2013-04-01T17:44:00Z,28.8850,-90.0250,10.0,2.3,1.0,3.6,'11111222,11111222,11111222' 
LOOP,urn:ioos:station:wmo:lopl1:1,2013-04-01T17:59:00Z,28.8850,-90.0250,10.0,1.8,343.0,3.1,'11111222,11111222,11111222' 
LOOP,urn:ioos:station:wmo:lopl1:1,2013-04-01T18:14:00Z,28.8850,-90.0250,10.0,3.8,357.0,5.5,'11111222,11111222,11111222' 
LOOP,urn:ioos:station:wmo:lopl1:1,2013-04-01T18:29:00Z,28.8850,-90.0250,10.0,4.3,15.0,5.1,'11111222,11111222,11111222' 
LOOP,urn:ioos:station:wmo:lopl1:1,2013-04-01T18:44:00Z,28.8850,-90.0250,10.0,4.9,11.0,6.0,'11111222,11111222,11111222' 
LOOP,urn:ioos:station:wmo:lopl1:1,2013-04-01T18:59:00Z,28.8850,-90.0250,10.0,4.5,9.0,5.6,'11111222,11111222,11111222' 
LOOP,urn:ioos:station:wmo:lopl1:1,2013-04-01T19:14:00Z,28.8850,-90.0250,10.0,4.9,27.0,5.9,'11111222,11111222,11111222' 
LOOP,urn:ioos:station:wmo:lopl1:1,2013-04-01T19:29:00Z,28.8850,-90.0250,10.0,4.6,27.0,5.6,'11111222,11111222,11111222' 
LOOP,urn:ioos:station:wmo:lopl1:1,2013-04-01T19:44:00Z,28.8850,-90.0250,10.0,4.4,34.0,5.2,'11111222,11111222,11111222' 
LOOP,urn:ioos:station:wmo:lopl1:1,2013-04-01T19:59:00Z,28.8850,-90.0250,10.0,4.7,28.0,5.8,'11111222,11111222,11111222' 
LOOP,urn:ioos:station:wmo:lopl1:1,2013-04-01T20:14:00Z,28.8850,-90.0250,10.0,5.1,27.0,6.0,'11111222,11111222,11111222' 
LOOP,urn:ioos:station:wmo:lopl1:1,2013-04-01T20:44:00Z,28.8850,-90.0250,10.0,4.1,57.0,5.2,'11111222,11111222,11111222' 
LOOP,urn:ioos:station:wmo:lopl1:1,2013-04-01T21:04:00Z,28.8850,-90.0250,10.0,3.4,44.0,4.7,'11111222,11111222,11111222' 
LOOP,urn:ioos:station:wmo:lopl1:1,2013-04-01T21:19:00Z,28.8850,-90.0250,10.0,3.1,45.0,3.8,'11111222,11111222,11111222' 
LOOP,urn:ioos:station:wmo:lopl1:1,2013-04-01T21:34:00Z,28.8850,-90.0250,10.0,3.4,60.0,4.0,'11111222,11111222,11111222' 
LOOP,urn:ioos:station:wmo:lopl1:1,2013-04-01T21:49:00Z,28.8850,-90.0250,10.0,3.4,70.0,4.2,'11111222,11111222,11111222' 
LOOP,urn:ioos:station:wmo:lopl1:1,2013-04-01T22:04:00Z,28.8850,-90.0250,10.0,3.5,65.0,4.1,'11111222,11111222,11111222' 
LOOP,urn:ioos:station:wmo:lopl1:1,2013-04-01T22:19:00Z,28.8850,-90.0250,10.0,3.3,98.0,4.0,'11111222,11111222,11111222' 
LOOP,urn:ioos:station:wmo:lopl1:1,2013-04-01T22:34:00Z,28.8850,-90.0250,10.0,3.3,99.0,4.0,'11111222,11111222,11111222' 
LOOP,urn:ioos:station:wmo:lopl1:1,2013-04-01T22:49:00Z,28.8850,-90.0250,10.0,4.0,93.0,4.6,'11111222,11111222,11111222' 
LOOP,urn:ioos:station:wmo:lopl1:1,2013-04-01T23:04:00Z,28.8850,-90.0250,10.0,4.2,100.0,4.8,'11111222,11111222,11111222' 
LOOP,urn:ioos:station:wmo:lopl1:1,2013-04-01T23:19:00Z,28.8850,-90.0250,10.0,4.3,90.0,4.9,'11111222,11111222,11111222' 
LOOP,urn:ioos:station:wmo:lopl1:1,2013-04-01T23:34:00Z,28.8850,-90.0250,10.0,4.4,104.0,5.2,'11111222,11111222,11111222' 
LOOP,urn:ioos:station:wmo:lopl1:1,2013-04-01T23:49:00Z,28.8850,-90.0250,10.0,5.0,117.0,5.6,'11111222,11111222,11111222' 
LOOP,urn:ioos:station:wmo:lopl1:1,2013-04-02T00:04:00Z,28.8850,-90.0250,10.0,5.1,113.0,5.7,'11111222,11111222,11111222' 
LOOP,urn:ioos:station:wmo:lopl1:1,2013-04-02T00:19:00Z,28.8850,-90.0250,10.0,5.2,96.0,5.8,'11111222,11111222,11111222' 
LOOP,urn:ioos:station:wmo:lopl1:1,2013-04-02T00:34:00Z,28.8850,-90.0250,10.0,5.3,113.0,6.0,'11111222,11111222,11111222' 
LOOP,urn:ioos:station:wmo:lopl1:1,2013-04-02T00:49:00Z,28.8850,-90.0250,10.0,5.3,117.0,6.0,'11111222,11111222,11111222' 
LOOP,urn:ioos:station:wmo:lopl1:1,2013-04-02T01:04:00Z,28.8850,-90.0250,10.0,5.5,121.0,6.0,'11111222,11111222,11111222' 
LOOP,urn:ioos:station:wmo:lopl1:1,2013-04-02T01:19:00Z,28.8850,-90.0250,10.0,5.4,125.0,5.8,'11111222,11111222,11111222' 
LOOP,urn:ioos:station:wmo:lopl1:1,2013-04-02T01:34:00Z,28.8850,-90.0250,10.0,5.5,122.0,6.2,'11111222,11111222,11111222' 
LOOP,urn:ioos:station:wmo:lopl1:1,2013-04-02T01:49:00Z,28.8850,-90.0250,10.0,5.4,130.0,6.0,'11111222,11111222,11111222' 
LOOP,urn:ioos:station:wmo:lopl1:1,2013-04-02T02:04:00Z,28.8850,-90.0250,10.0,5.7,134.0,6.1,'11111222,11111222,11111222' 
LOOP,urn:ioos:station:wmo:lopl1:1,2013-04-02T02:19:00Z,28.8850,-90.0250,10.0,5.3,142.0,5.9,'11111222,11111222,11111222' 
LOOP,urn:ioos:station:wmo:lopl1:1,2013-04-02T02:34:00Z,28.8850,-90.0250,10.0,5.1,144.0,5.7,'11111222,11111222,11111222' 
LOOP,urn:ioos:station:wmo:lopl1:1,2013-04-02T02:49:00Z,28.8850,-90.0250,10.0,4.5,144.0,5.3,'11111222,11111222,11111222' 
LOOP,urn:ioos:station:wmo:lopl1:1,2013-04-02T03:04:00Z,28.8850,-90.0250,10.0,4.4,144.0,5.2,'11111222,11111222,11111222' 
LOOP,urn:ioos:station:wmo:lopl1:1,2013-04-02T03:24:00Z,28.8850,-90.0250,10.0,4.2,147.0,4.6,'11111222,11111222,11111222' 
LOOP,urn:ioos:station:wmo:lopl1:1,2013-04-02T03:39:00Z,28.8850,-90.0250,10.0,3.9,153.0,4.4,'11111222,11111222,11111222' 
LOOP,urn:ioos:station:wmo:lopl1:1,2013-04-02T03:54:00Z,28.8850,-90.0250,10.0,3.7,141.0,4.4,'11111222,11111222,11111222' 
LOOP,urn:ioos:station:wmo:lopl1:1,2013-04-02T04:09:00Z,28.8850,-90.0250,10.0,3.2,143.0,3.8,'11111222,11111222,11111222' 
LOOP,urn:ioos:station:wmo:lopl1:1,2013-04-02T04:24:00Z,28.8850,-90.0250,10.0,3.4,129.0,3.8,'11111222,11111222,11111222' 
LOOP,urn:ioos:station:wmo:lopl1:1,2013-04-02T04:39:00Z,28.8850,-90.0250,10.0,2.9,101.0,3.2,'11111222,11111222,11111222' 
LOOP,urn:ioos:station:wmo:lopl1:1,2013-04-02T04:54:00Z,28.8850,-90.0250,10.0,3.5,95.0,3.9,'11111222,11111222,11111222' 
LOOP,urn:ioos:station:wmo:lopl1:1,2013-04-02T05:09:00Z,28.8850,-90.0250,10.0,3.7,88.0,4.2,'11111222,11111222,11111222' 
LOOP,urn:ioos:station:wmo:lopl1:1,2013-04-02T05:24:00Z,28.8850,-90.0250,10.0,3.4,99.0,3.9,'11111222,11111222,11111222' 
LOOP,urn:ioos:station:wmo:lopl1:1,2013-04-02T05:39:00Z,28.8850,-90.0250,10.0,3.2,108.0,3.8,'11111222,11111222,11111222' 
LOOP,urn:ioos:station:wmo:lopl1:1,2013-04-02T05:54:00Z,28.8850,-90.0250,10.0,3.4,106.0,3.8,'11111222,11111222,11111222' 
LOOP,urn:ioos:station:wmo:lopl1:1,2013-04-02T06:09:00Z,28.8850,-90.0250,10.0,3.4,94.0,3.8,'11111222,11111222,11111222' 
LOOP,urn:ioos:station:wmo:lopl1:1,2013-04-02T06:24:00Z,28.8850,-90.0250,10.0,3.5,101.0,3.9,'11111222,11111222,11111222' 
LOOP,urn:ioos:station:wmo:lopl1:1,2013-04-02T06:39:00Z,28.8850,-90.0250,10.0,3.1,92.0,3.6,'11111222,11111222,11111222' 
LOOP,urn:ioos:station:wmo:lopl1:1,2013-04-02T06:54:00Z,28.8850,-90.0250,10.0,3.5,89.0,3.9,'11111222,11111222,11111222' 
LOOP,urn:ioos:station:wmo:lopl1:1,2013-04-02T07:09:00Z,28.8850,-90.0250,10.0,3.8,79.0,4.2,'11111222,11111222,11111222' 
LOOP,urn:ioos:station:wmo:lopl1:1,2013-04-02T07:24:00Z,28.8850,-90.0250,10.0,3.6,69.0,4.3,'11111222,11111222,11111222' 
LOOP,urn:ioos:station:wmo:lopl1:1,2013-04-02T07:39:00Z,28.8850,-90.0250,10.0,4.2,80.0,5.0,'11111222,11111222,11111222' 
LOOP,urn:ioos:station:wmo:lopl1:1,2013-04-02T07:54:00Z,28.8850,-90.0250,10.0,4.7,68.0,5.3,'11111222,11111222,11111222' 
LOOP,urn:ioos:station:wmo:lopl1:1,2013-04-02T08:09:00Z,28.8850,-90.0250,10.0,5.1,70.0,5.8,'11111222,11111222,11111222' 
LOOP,urn:ioos:station:wmo:lopl1:1,2013-04-02T08:24:00Z,28.8850,-90.0250,10.0,4.6,66.0,5.9,'11111222,11111222,11111222' 
LOOP,urn:ioos:station:wmo:lopl1:1,2013-04-02T08:39:00Z,28.8850,-90.0250,10.0,4.5,65.0,5.4,'11111222,11111222,11111222' 
LOOP,urn:ioos:station:wmo:lopl1:1,2013-04-02T08:54:00Z,28.8850,-90.0250,10.0,4.9,65.0,5.6,'11111222,11111222,11111222' 
LOOP,urn:ioos:station:wmo:lopl1:1,2013-04-02T09:09:00Z,28.8850,-90.0250,10.0,5.3,77.0,6.0,'11111222,11111222,11111222' 
LOOP,urn:ioos:station:wmo:lopl1:1,2013-04-02T09:24:00Z,28.8850,-90.0250,10.0,5.3,77.0,6.0,'11111222,11111222,11111222' 
LOOP,urn:ioos:station:wmo:lopl1:1,2013-04-02T09:44:00Z,28.8850,-90.0250,10.0,6.0,77.0,6.7,'11111222,11111222,11111222' 
LOOP,urn:ioos:station:wmo:lopl1:1,2013-04-02T09:59:00Z,28.8850,-90.0250,10.0,5.1,81.0,5.9,'11111222,11111222,11111222' 
LOOP,urn:ioos:station:wmo:lopl1:1,2013-04-02T10:14:00Z,28.8850,-90.0250,10.0,5.4,70.0,6.1,'11111222,11111222,11111222' 
LOOP,urn:ioos:station:wmo:lopl1:1,2013-04-02T10:29:00Z,28.8850,-90.0250,10.0,5.8,76.0,6.7,'11111222,11111222,11111222' 
LOOP,urn:ioos:station:wmo:lopl1:1,2013-04-02T10:44:00Z,28.8850,-90.0250,10.0,5.2,77.0,6.0,'11111222,11111222,11111222' 
LOOP,urn:ioos:station:wmo:lopl1:1,2013-04-02T10:59:00Z,28.8850,-90.0250,10.0,5.7,74.0,6.3,'11111222,11111222,11111222' 
LOOP,urn:ioos:station:wmo:lopl1:1,2013-04-02T11:14:00Z,28.8850,-90.0250,10.0,5.9,79.0,6.7,'11111222,11111222,11111222' 
LOOP,urn:ioos:station:wmo:lopl1:1,2013-04-02T11:29:00Z,28.8850,-90.0250,10.0,5.9,78.0,6.6,'11111222,11111222,11111222' 
LOOP,urn:ioos:station:wmo:lopl1:1,2013-04-02T11:44:00Z,28.8850,-90.0250,10.0,5.6,70.0,6.9,'11111222,11111222,11111222' 
LOOP,urn:ioos:station:wmo:lopl1:1,2013-04-02T11:59:00Z,28.8850,-90.0250,10.0,5.6,78.0,6.6,'11111222,11111222,11111222' 
LOOP,urn:ioos:station:wmo:lopl1:1,2013-04-02T12:14:00Z,28.8850,-90.0250,10.0,5.2,89.0,6.1,'11111222,11111222,11111222' 
LOOP,urn:ioos:station:wmo:lopl1:1,2013-04-02T12:29:00Z,28.8850,-90.0250,10.0,5.4,83.0,6.0,'11111222,11111222,11111222' 
LOOP,urn:ioos:station:wmo:lopl1:1,2013-04-02T12:44:00Z,28.8850,-90.0250,10.0,5.2,89.0,5.8,'11111222,11111222,11111222' 
LOOP,urn:ioos:station:wmo:lopl1:1,2013-04-02T12:59:00Z,28.8850,-90.0250,10.0,5.6,84.0,6.2,'11111222,11111222,11111222' 
LOOP,urn:ioos:station:wmo:lopl1:1,2013-04-02T13:14:00Z,28.8850,-90.0250,10.0,5.9,85.0,6.8,'11111222,11111222,11111222' 
LOOP,urn:ioos:station:wmo:lopl1:1,2013-04-02T13:29:00Z,28.8850,-90.0250,10.0,6.1,89.0,6.9,'11111222,11111222,11111222' 
LOOP,urn:ioos:station:wmo:lopl1:1,2013-04-02T13:44:00Z,28.8850,-90.0250,10.0,6.0,85.0,7.6,'11111222,11111222,11111222' 
LOOP,urn:ioos:station:wmo:lopl1:1,2013-04-02T13:59:00Z,28.8850,-90.0250,10.0,6.3,89.0,7.1,'11111222,11111222,11111222' 
LOOP,urn:ioos:station:wmo:lopl1:1,2013-04-02T14:14:00Z,28.8850,-90.0250,10.0,6.9,88.0,7.7,'11111222,11111222,11111222' 
LOOP,urn:ioos:station:wmo:lopl1:1,2013-04-02T14:29:00Z,28.8850,-90.0250,10.0,7.6,86.0,8.4,'11111222,11111222,11111222' 
LOOP,urn:ioos:station:wmo:lopl1:1,2013-04-02T14:49:00Z,28.8850,-90.0250,10.0,7.5,91.0,8.7,'11111222,11111222,11111222' 
LOOP,urn:ioos:station:wmo:lopl1:1,2013-04-02T15:04:00Z,28.8850,-90.0250,10.0,8.0,86.0,8.6,'11111222,11111222,11111222' 
LOOP,urn:ioos:station:wmo:lopl1:1,2013-04-02T15:19:00Z,28.8850,-90.0250,10.0,7.3,84.0,8.2,'11111222,11111222,11111222' 
LOOP,urn:ioos:station:wmo:lopl1:1,2013-04-02T15:34:00Z,28.8850,-90.0250,10.0,6.2,88.0,7.0,'11111222,11111222,11111222' 
LOOP,urn:ioos:station:wmo:lopl1:1,2013-04-02T15:49:00Z,28.8850,-90.0250,10.0,6.2,92.0,6.8,'11111222,11111222,11111222' 
LOOP,urn:ioos:station:wmo:lopl1:1,2013-04-02T16:04:00Z,28.8850,-90.0250,10.0,5.7,92.0,6.5,'11111222,11111222,11111222' 
LOOP,urn:ioos:station:wmo:lopl1:1,2013-04-02T16:19:00Z,28.8850,-90.0250,10.0,4.9,92.0,5.7,'11111222,11111222,11111222' 
LOOP,urn:ioos:station:wmo:lopl1:1,2013-04-02T16:34:00Z,28.8850,-90.0250,10.0,4.7,94.0,5.2,'11111222,11111222,11111222' 
LOOP,urn:ioos:station:wmo:lopl1:1,2013-04-02T16:49:00Z,28.8850,-90.0250,10.0,4.6,97.0,5.0,'11111222,11111222,11111222' 
LOOP,urn:ioos:station:wmo:lopl1:1,2013-04-02T17:04:00Z,28.8850,-90.0250,10.0,4.3,102.0,4.7,'11111222,11111222,11111222' 
LOOP,urn:ioos:station:wmo:lopl1:1,2013-04-02T17:19:00Z,28.8850,-90.0250,10.0,3.9,82.0,4.4,'11111222,11111222,11111222' 
LOOP,urn:ioos:station:wmo:lopl1:1,2013-04-02T17:34:00Z,28.8850,-90.0250,10.0,4.1,79.0,4.6,'11111222,11111222,11111222' 
LOOP,urn:ioos:station:wmo:lopl1:1,2013-04-02T17:49:00Z,28.8850,-90.0250,10.0,4.3,75.0,5.0,'11111222,11111222,11111222' 
LOOP,urn:ioos:station:wmo:lopl1:1,2013-04-02T18:04:00Z,28.8850,-90.0250,10.0,4.6,77.0,5.0,'11111222,11111222,11111222' 
LOOP,urn:ioos:station:wmo:lopl1:1,2013-04-02T18:24:00Z,28.8850,-90.0250,10.0,4.5,72.0,5.4,'11111222,11111222,11111222' 
LOOP,urn:ioos:station:wmo:lopl1:1,2013-04-02T18:39:00Z,28.8850,-90.0250,10.0,4.3,62.0,5.0,'11111222,11111222,11111222' 
LOOP,urn:ioos:station:wmo:lopl1:1,2013-04-02T18:54:00Z,28.8850,-90.0250,10.0,5.1,63.0,5.9,'11111222,11111222,11111222' 
LOOP,urn:ioos:station:wmo:lopl1:1,2013-04-02T19:09:00Z,28.8850,-90.0250,10.0,5.9,69.0,7.1,'11111222,11111222,11111222' 
LOOP,urn:ioos:station:wmo:lopl1:1,2013-04-02T19:24:00Z,28.8850,-90.0250,10.0,5.9,69.0,6.9,'11111222,11111222,11111222' 
LOOP,urn:ioos:station:wmo:lopl1:1,2013-04-02T19:39:00Z,28.8850,-90.0250,10.0,5.3,73.0,5.9,'11111222,11111222,11111222' 
LOOP,urn:ioos:station:wmo:lopl1:1,2013-04-02T19:54:00Z,28.8850,-90.0250,10.0,6.7,76.0,7.2,'11111222,11111222,11111222' 
LOOP,urn:ioos:station:wmo:lopl1:1,2013-04-02T20:09:00Z,28.8850,-90.0250,10.0,6.8,83.0,7.6,'11111222,11111222,11111222' 
LOOP,urn:ioos:station:wmo:lopl1:1,2013-04-02T20:24:00Z,28.8850,-90.0250,10.0,7.7,84.0,8.3,'11111222,11111222,11111222' 
LOOP,urn:ioos:station:wmo:lopl1:1,2013-04-02T20:39:00Z,28.8850,-90.0250,10.0,7.2,87.0,8.0,'11111222,11111222,11111222' 
LOOP,urn:ioos:station:wmo:lopl1:1,2013-04-02T20:54:00Z,28.8850,-90.0250,10.0,7.3,96.0,8.1,'11111222,11111222,11111222' 
LOOP,urn:ioos:station:wmo:lopl1:1,2013-04-02T21:09:00Z,28.8850,-90.0250,10.0,6.4,95.0,7.2,'11111222,11111222,11111222' 
LOOP,urn:ioos:station:wmo:lopl1:1,2013-04-02T21:24:00Z,28.8850,-90.0250,10.0,7.1,97.0,7.8,'11111222,11111222,11111222' 
LOOP,urn:ioos:station:wmo:lopl1:1,2013-04-02T21:39:00Z,28.8850,-90.0250,10.0,7.5,88.0,8.4,'11111222,11111222,11111222' 
LOOP,urn:ioos:station:wmo:lopl1:1,2013-04-02T21:54:00Z,28.8850,-90.0250,10.0,7.6,93.0,8.5,'11111222,11111222,11111222' 
LOOP,urn:ioos:station:wmo:lopl1:1,2013-04-02T22:09:00Z,28.8850,-90.0250,10.0,6.9,98.0,7.9,'11111222,11111222,11111222' 
LOOP,urn:ioos:station:wmo:lopl1:1,2013-04-02T22:24:00Z,28.8850,-90.0250,10.0,8.3,92.0,9.3,'11111222,11111222,11111222' 
LOOP,urn:ioos:station:wmo:lopl1:1,2013-04-02T22:39:00Z,28.8850,-90.0250,10.0,8.5,101.0,9.3,'11111222,11111222,11111222' 
LOOP,urn:ioos:station:wmo:lopl1:1,2013-04-02T22:59:00Z,28.8850,-90.0250,10.0,8.6,93.0,9.3,'11111222,11111222,11111222' 
LOOP,urn:ioos:station:wmo:lopl1:1,2013-04-02T23:14:00Z,28.8850,-90.0250,10.0,7.1,98.0,7.9,'11111222,11111222,11111222' 
LOOP,urn:ioos:station:wmo:lopl1:1,2013-04-02T23:29:00Z,28.8850,-90.0250,10.0,6.8,104.0,7.6,'11111222,11111222,11111222' 
LOOP,urn:ioos:station:wmo:lopl1:1,2013-04-02T23:44:00Z,28.8850,-90.0250,10.0,6.5,94.0,7.2,'11111222,11111222,11111222' 
LOOP,urn:ioos:station:wmo:lopl1:1,2013-04-02T23:59:00Z,28.8850,-90.0250,10.0,7.3,93.0,8.0,'11111222,11111222,11111222' 
LOOP,urn:ioos:station:wmo:lopl1:1,2013-04-03T00:14:00Z,28.8850,-90.0250,10.0,7.0,102.0,7.8,'11111222,11111222,11111222' 
LOOP,urn:ioos:station:wmo:lopl1:1,2013-04-03T00:29:00Z,28.8850,-90.0250,10.0,7.9,92.0,8.4,'11111222,11111222,11111222' 
LOOP,urn:ioos:station:wmo:lopl1:1,2013-04-03T00:44:00Z,28.8850,-90.0250,10.0,8.2,91.0,8.7,'11111222,11111222,11111222' 
LOOP,urn:ioos:station:wmo:lopl1:1,2013-04-03T00:59:00Z,28.8850,-90.0250,10.0,8.2,87.0,9.2,'11111222,11111222,11111222' 
LOOP,urn:ioos:station:wmo:lopl1:1,2013-04-03T01:14:00Z,28.8850,-90.0250,10.0,8.1,96.0,9.3,'11111222,11111222,11111222' 
LOOP,urn:ioos:station:wmo:lopl1:1,2013-04-03T01:29:00Z,28.8850,-90.0250,10.0,7.3,103.0,7.8,'11111222,11111222,11111222' 
LOOP,urn:ioos:station:wmo:lopl1:1,2013-04-03T01:44:00Z,28.8850,-90.0250,10.0,8.1,100.0,8.8,'11111222,11111222,11111222' 
LOOP,urn:ioos:station:wmo:lopl1:1,2013-04-03T01:59:00Z,28.8850,-90.0250,10.0,8.1,101.0,9.2,'11111222,11111222,11111222' 
LOOP,urn:ioos:station:wmo:lopl1:1,2013-04-03T02:14:00Z,28.8850,-90.0250,10.0,7.7,106.0,8.4,'11111222,11111222,11111222' 
LOOP,urn:ioos:station:wmo:lopl1:1,2013-04-03T02:29:00Z,28.8850,-90.0250,10.0,7.4,109.0,8.2,'11111222,11111222,11111222' 